Regional Weather Roundup
Issued by NWS

Home | Current Version | Previous Version | Graphics & Text | Print | Product List | Glossary On
Versions: 1 2 3 4 5 6 7 8 9 10 11 12 13 14 15 16 17 18 19 20 21 22 23 24 25 26 27 28 29 30 31 32 33 34 35 36 37 38 39 40 41 42 43 44 45 46 47 48 49 50
770
ASUS43 KLOT 202208
RWRIL

ILLINOIS REGIONAL WEATHER ROUNDUP
NATIONAL WEATHER SERVICE CHICAGO/ROMEOVILLE IL
400 PM CST MON NOV 20 2017

NOTE: "FAIR" INDICATES FEW OR NO CLOUDS BELOW 12,000 FEET WITH NO
SIGNIFICANT WEATHER AND/OR OBSTRUCTIONS TO VISIBILITY.

* THESE STATIONS ARE NOT UNDER NWS QUALITY CONTROL. THEY ALSO MAY NOT
  REPORT WEATHER SUCH AS PRECIPITATION OR FOG.

ILZ001-002-007-009-015-016-024-202300-
NORTHWEST ILLINOIS

CITY           SKY/WX    TMP DP  RH WIND       PRES   REMARKS
MOLINE         CLEAR     57  31  37 S17G28    29.69S
STERLING*      CLOUDY    54  34  46 SW9       29.72S
SAVANNA*       CLEAR     55  33  43 S16       29.67F
$$

ILZ003-004-008-010-011-017-018-202300-
NORTH CENTRAL ILLINOIS

CITY           SKY/WX    TMP DP  RH WIND       PRES   REMARKS
ROCKFORD       CLOUDY    53  33  46 S14       29.72S
FREEPORT*      CLOUDY    51  34  52 S15G21    29.69S
ROCHELLE*      CLEAR     50  36  60 S16       29.72F
DE KALB*       CLEAR     49  36  61 S18       29.74S
PERU*          CLEAR     53  32  45 S15       29.76F
$$

ILZ005-006-012>014-019>023-202300-
NORTHEAST ILLINOIS

CITY           SKY/WX    TMP DP  RH WIND       PRES   REMARKS
CHICAGO-OHARE  MOCLDY    52  34  50 SW16G25   29.74F
CHICAGO-MIDWAY MOCLDY    52  34  50 S20G31    29.77F
AURORA         CLEAR     52  34  50 S20G29    29.75F
LANSING*       CLEAR     50  38  62 S18G28    29.82S
JOLIET*        CLEAR     53  35  50 S16G23    29.80S
WAUKEGAN       CLEAR     50  32  50 SW20G26   29.70S
DUPAGE AIRPORT CLEAR     51  35  54 S16G29    29.74F
KANKAKEE*      CLEAR     50  34  54 S14G25    29.85F
WHEELING       CLEAR     52  34  50 S21G30    29.75F
MORRIS*        CLEAR     51  34  52 S16G28    29.78S
ROMEOVILLE*    CLEAR     51  35  52 SW23      29.78F
NORTHERLY ISL    N/A     52  31  44 S20         N/A
$$

LMZ740>746-202300-
SOUTHERN LAKE MICHIGAN

STATION/POSITION SKY/WX   TEMP    WIND        PRES    VSBY  WAVE
                          AIR SEA DIR/SP/G                  HT/PER
                          (F)     (DEG/KT/KT) (MB)    (MI)  (FT/S)
SOUTHERN BUOY              48 49  200/ 23/ 31 1006.4          6/ 6
HARRISON CRIB              52     210/ 30/ 35   N/A
BURNHAM HARBOR             52     180/ 17/ 24   N/A
CALUMET HARBOR             52     190/ 14/ 21 1008.1F
BURNS HARBOR               51     200/ 24/ 31 1009.8F
MICHIGAN CITY              51     190/ 21/ 26   N/A
$$

ILZ025>027-034>036-040-047-049-050-058-095>099-202300-
WEST-CENTRAL ILLINOIS

CITY           SKY/WX    TMP DP  RH WIND       PRES   REMARKS
QUINCY         CLEAR     57  31  37 S16G28    29.78F
GALESBURG*     CLEAR     55  34  44 S18G26    29.75F
MACOMB*        CLEAR     56  32  40 SW18G28   29.79S
JACKSONVILLE*  CLEAR     57  28  33 S17       29.82F
PITTSFIELD*    CLEAR     60  30  32 S12       29.83R
$$

ILZ028>032-037-038-041>044-048-051>054-059>061-202300-
CENTRAL ILLINOIS

CITY           SKY/WX    TMP DP  RH WIND       PRES   REMARKS
PONTIAC        CLEAR     51  36  56 S23G31    29.82F
BLOOMINGTON    CLEAR     50  34  54 S25G32    29.82F
DECATUR        CLEAR     51  30  44 S18G25    29.89F
PEORIA         CLEAR     55  31  39 S20G30    29.79F
LACON*         CLEAR     55  31  40 SW18      29.76S
LINCOLN*       CLEAR     52  35  51 S17G25    29.85F
SPRINGFIELD    CLEAR     56  31  38 S18G25    29.85F
TAYLORVILLE    CLEAR     51  33  51 S16       29.89S
$$

ILZ033-039-045-046-055>057-062-063-202300-
EAST-CENTRAL ILLINOIS

CITY           SKY/WX    TMP DP  RH WIND       PRES   REMARKS
CHAMPAIGN      CLEAR     49  34  56 S21       29.90F
DANVILLE*      CLOUDY    47  32  55 S22G30    29.89F
RANTOUL*       CLEAR     49  38  66 S17G24    29.89F
MATTOON        CLEAR     50  30  46 S17G26    29.92F
PARIS*         CLEAR     48  34  58 S16G23    29.96S
$$

ILZ079-100>102-202300-
SOUTHWEST ILLINOIS

CITY           SKY/WX    TMP DP  RH WIND       PRES   REMARKS
ALTON          PTCLDY    55  32  41 S18G25    29.91S
BELLEVILLE     CLEAR     55  29  36 S17       29.92S
CAHOKIA*       CLEAR     57  26  30 S10       29.92S
SPARTA*        CLEAR     52  30  44 S16       29.98S
$$

ILZ064>066-069>071-074>076-080>082-084>086-088>090-092>094-202300-
SOUTH-CENTRAL ILLINOIS

CITY           SKY/WX    TMP DP  RH WIND       PRES   REMARKS
CARBONDALE     CLEAR     50  29  44 S14       30.01F
CAIRO*         CLEAR     51  28  40 S9        30.06F
EFFINGHAM*     CLEAR     52  30  42 S10G20    29.97F
MARION         PTCLDY    52  28  40 S20       30.02F
MT. VERNON     CLEAR     51  30  44 S12G21    30.00F
CENTRALIA*     CLEAR     52  31  44 S16       29.97S
SALEM*         CLEAR     53  28  37 S12G22    29.97S
METROPOLIS*    CLEAR     52  26  36 S7        30.06F
$$

ILZ067-068-072-073-078-083-087-091-202300-
SOUTHEAST ILLINOIS

CITY           SKY/WX    TMP DP  RH WIND       PRES   REMARKS
LAWRENCEVILLE  CLOUDY    49  31  49 S16       30.03S
FLORA*         CLOUDY    51  32  47 S15       29.99F
FAIRFIELD*     CLEAR     50  30  46 S6        30.01S
HARRISBURG*    CLEAR     51  28  40 S8        30.04F
ROBINSON*      CLOUDY    49  31  50 S12       30.02S
CARMI*         CLEAR     50  30  45 S13       30.03F
$$

ABBREVIATIONS USED IN REMARKS
   TC - TEMPERATURE IN CELSIUS
  WCI - WIND CHILL INDEX
   HX - HEAT INDEX
  VSB - VISIBILITY
$$





USA.gov is the U.S. government's official web portal to all federal, state and local government web resources and services.